Home > Weather > Götzis > Past weeks

Flag for Austria Weather for the Past 2 Weeks in Götzis, Vorarlberg, Austria

Now
45 °F

Sprinkles. Passing clouds.


Feels Like: 45 °F
Forecast: 45 / 64 °F
Wind: 2 mph from North

Location: Saint Gallen-Altenrhein

Current Time: May 2, 2016 at 3:50:51 AM

Latest Report: May 2, 2016 at 3:20 AM


Visibility: N/A

Pressure: 30.15 "Hg

Humidity: 100%

Dew Point: 45 °F

Location of GötzisLocation

Historic Weather in Götzis — Graph

°F

Götzis Temperature Yesterday

Maximum temperature yesterday: 46 °F (at 12:20 AM)
Minimum temperature yesterday: 43 °F (at 5:50 AM)
Average temperature yesterday: 45 °F

High & Low Weather Summary for the Past Weeks

 TemperatureHumidityPressure
High66 °F (Apr 22, 3:50 PM)100% (Apr 17, 9:20 PM)30.33 "Hg (Apr 17, 9:20 PM)
Low32 °F (Apr 28, 1:50 AM)37% (Apr 22, 6:20 PM)29.68 "Hg (Apr 17, 2:20 AM)
Average46 °F77%30.00 "Hg
* Reported Apr 17 2:20 AM — May 2 2:20 AM, Götzis, Weather by CustomWeather, © 2016

Note: Actual official high and low records may vary slightly from our data, if they occured in-between our weather recording intervals... More about our weather records

Advertising

Götzis Weather History for the Previous 24 Hours

Scroll right to see more
 ConditionsComfort  
Time TempWeatherWind HumidityBarometerVisibility
2:20 AM
Mon, May 2
45 °FLight rain. Passing clouds.5 mph100%30.18 "HgN/A
1:50 AM45 °FLight rain. Passing clouds.6 mph100%30.18 "Hg4 mi
1:20 AM46 °FLight rain. Passing clouds.6 mph87%30.18 "HgN/A
12:20 AM45 °FSprinkles. Fog.3 mph93%30.18 "Hg2 mi
11:50 PM
Sun, May 1
45 °FPartly cloudy.3 mph100%30.18 "Hg6 mi
10:50 PM45 °FLight rain. Partly cloudy.3 mph100%30.18 "Hg5 mi
10:20 PM45 °FLight rain. Passing clouds.2 mph93%30.18 "HgN/A
9:50 PM45 °FSprinkles. Low clouds.5 mph93%30.18 "HgN/A
9:20 PM45 °FSprinkles. Overcast.5 mph93%30.15 "Hg6 mi
8:50 PM45 °FLight rain. Broken clouds.2 mph93%30.15 "HgN/A
8:20 PM45 °FLight rain. Broken clouds.2 mph93%30.12 "HgN/A
7:50 PM45 °FLight rain. Broken clouds.3 mph93%30.12 "HgN/A
7:20 PM45 °FLight rain. Broken clouds.3 mph93%30.12 "HgN/A
6:50 PM46 °FLight rain. Broken clouds.2 mph93%30.12 "HgN/A
6:20 PM45 °FLight rain. Partly sunny.2 mph100%30.09 "HgN/A
5:50 PM45 °FRain. Partly sunny.5 mph100%30.09 "HgN/A
5:20 PM45 °FRain. Broken clouds.6 mph93%30.07 "HgN/A
4:50 PM45 °FLight rain. More clouds than sun.5 mph93%30.07 "HgN/A
4:20 PM45 °FLight rain. Low clouds.7 mph93%30.07 "Hg5 mi
3:50 PM45 °FRain showers. Low clouds.6 mph93%30.07 "Hg5 mi
3:20 PM45 °FSprinkles. Low clouds.2 mph93%30.07 "Hg6 mi
2:50 PM45 °FDrizzle. Low clouds.5 mph87%30.07 "HgN/A
2:20 PM45 °FLight rain. Overcast.7 mph87%30.07 "Hg5 mi
1:50 PM45 °FOvercast.7 mph87%30.07 "Hg5 mi
1:20 PM45 °FOvercast.5 mph87%30.04 "HgN/A
12:50 PM45 °FOvercast.6 mph87%30.04 "HgN/A
12:20 PM45 °FOvercast.2 mph81%30.04 "HgN/A
11:50 AM45 °FLight rain. Partly sunny.2 mph93%30.04 "HgN/A
11:20 AM45 °FLight rain. Partly sunny.3 mph93%30.04 "HgN/A
10:50 AM45 °FLight rain. Partly sunny.3 mph93%30.01 "HgN/A
10:20 AM45 °FLight rain. Partly sunny.3 mph87%30.01 "HgN/A
9:50 AM45 °FLight rain. Partly sunny.3 mph93%30.01 "HgN/A
8:50 AM43 °FLight rain. Overcast.3 mph93%29.98 "HgN/A
8:20 AM43 °FLight rain. Overcast.3 mph87%29.98 "HgN/A
7:50 AM43 °FLight rain. Overcast.5 mph87%29.98 "HgN/A
7:20 AM43 °FLight rain. Broken clouds.5 mph87%29.98 "HgN/A
6:20 AM43 °FLight rain. Passing clouds.5 mph87%29.95 "HgN/A
5:50 AM43 °FLight rain. Passing clouds.5 mph87%29.95 "HgN/A
5:20 AM45 °FLight rain. Overcast.5 mph87%29.95 "HgN/A
4:20 AM45 °FSprinkles. Overcast.9 mph87%29.92 "HgN/A
3:50 AM45 °FSprinkles. Overcast.6 mph87%29.92 "HgN/A
3:20 AM46 °FOvercast.9 mph82%29.92 "HgN/A
Weather by CustomWeather, © 2016

See weather overviewHow to use our weather pages